FW6934 Weather Reports


time (UTC)temp
F
wind
direction
speed
knots
gust
knots
rain 1hr
in
rain 24hr
in
rain mn
in
humidity
%
barometer
mb
20260901030505 74 194 0.0 0.0 0.00 0.00 0.00 52 994.2
20260901030045 75 194 0.0 0.9 0.00 0.00 0.00 52 994.2
20260901025547 75 194 0.0 2.6 0.00 0.00 0.00 51 994.3
20260901025053 75 194 0.9 2.6 0.00 0.00 0.00 51 994.3
20260901024508 76 206 0.9 2.6 0.00 0.00 0.00 50 994.3
20260901024015 76 206 0.9 2.6 0.00 0.00 0.00 50 994.3
20260901023529 76 206 0.9 2.6 0.00 0.00 0.00 49 994.4
20260901023108 76 206 0.0 2.6 0.00 0.00 0.00 49 994.4
20260901022505 76 205 0.9 2.6 0.00 0.00 0.00 49 994.4
20260901022010 77 205 0.9 2.6 0.00 0.00 0.00 49 994.4
20260901021547 77 205 0.9 2.6 0.00 0.00 0.00 48 994.4
20260901021056 77 189 0.0 2.6 0.00 0.00 0.00 48 994.4
20260901020603 77 189 0.9 1.7 0.00 0.00 0.00 48 994.5
20260901020038 78 190 0.9 2.6 0.00 0.00 0.00 48 994.6
20260901015543 78 190 0.9 2.6 0.00 0.00 0.00 47 994.6
20260901015048 78 184 0.9 2.6 0.00 0.00 0.00 47 994.5
20260901014523 79 184 0.9 2.6 0.00 0.00 0.00 46 994.5
20260901014031 79 196 0.9 2.6 0.00 0.00 0.00 47 994.5
20260901013537 79 179 0.9 2.6 0.00 0.00 0.00 47 994.5
20260901013007 80 196 0.0 3.5 0.00 0.00 0.00 47 994.5
20260901012519 80 181 0.0 3.5 0.00 0.00 0.00 45 994.5
20260901012024 80 162 0.0 3.5 0.00 0.00 0.00 45 994.5
20260901011555 80 186 0.0 2.6 0.00 0.00 0.00 45 994.5
20260901011101 80 195 0.0 1.7 0.00 0.00 0.00 45 994.6
20260901010505 80 195 0.0 3.5 0.00 0.00 0.00 47 994.5
20260901010031 80 195 0.9 3.5 0.00 0.00 0.00 45 994.6
20260901005534 80 188 0.0 2.6 0.00 0.00 0.00 45 994.6
20260901005043 80 186 0.0 2.6 0.00 0.00 0.00 46 994.6
20260901004509 80 181 0.0 4.3 0.00 0.00 0.00 45 994.6
20260901004022 81 181 0.0 4.3 0.00 0.00 0.00 45 994.6
20260901003533 81 181 0.0 4.3 0.00 0.00 0.00 43 994.7
20260901003002 82 197 1.7 4.3 0.00 0.00 0.00 43 994.6
20260901002509 82 187 0.0 3.5 0.00 0.00 0.00 43 994.7
20260901002015 83 188 0.0 3.5 0.00 0.00 0.00 43 994.7
20260901001553 83 360 1.7 3.5 0.00 0.00 0.00 39 994.7
20260901001046 83 355 1.7 3.5 0.00 0.00 0.00 39 994.7
20260901000552 83 65 0.9 3.5 0.00 0.00 0.00 40 994.8
20260901000032 83 150 1.7 3.5 0.00 0.00 0.00 40 994.7
20260831235537 83 19 0.0 3.5 0.00 0.00 0.00 42 994.7
20260831235043 83 19 0.9 3.5 0.00 0.00 0.00 41 994.8
20260831234520 83 360 1.7 2.6 0.00 0.00 0.00 41 994.7
20260831234028 84 117 0.9 3.5 0.00 0.00 0.00 40 994.8
20260831233531 83 176 0.9 3.5 0.00 0.00 0.00 40 994.7
20260831233058 83 304 0.0 3.5 0.00 0.00 0.00 40 994.8
20260831232514 83 128 0.9 3.5 0.00 0.00 0.00 40 994.7
20260831232021 83 67 0.0 3.5 0.00 0.00 0.00 40 994.8
20260831231554 83 68 1.7 3.5 0.00 0.00 0.00 40 994.8
20260831231057 83 40 0.9 5.2 0.00 0.00 0.00 40 994.8
20260831230603 84 360 1.7 5.2 0.00 0.00 0.00 39 994.9
20260831230040 84 92 2.6 5.2 0.00 0.00 0.00 39 994.9
20260831225544 84 49 2.6 4.3 0.00 0.00 0.00 40 994.9
20260831225056 83 305 0.9 7.0 0.00 0.00 0.00 40 995.0
20260831224522 83 92 1.7 7.0 0.00 0.00 0.00 39 995.0
20260831224017 83 355 1.7 4.3 0.00 0.00 0.00 40 995.1
20260831223523 84 355 2.6 4.3 0.00 0.00 0.00 39 995.2
20260831223057 83 59 0.9 5.2 0.00 0.00 0.00 41 995.2
20260831222603 83 55 1.7 5.2 0.00 0.00 0.00 41 995.2
20260831222023 83 318 2.6 5.2 0.00 0.00 0.00 40 995.3
20260831221556 83 273 1.7 4.3 0.00 0.00 0.00 40 995.4
20260831221052 83 53 1.7 5.2 0.00 0.00 0.00 40 995.4
20260831220601 83 333 1.7 5.2 0.00 0.00 0.00 41 995.5
20260831220034 82 11 1.7 4.3 0.00 0.00 0.00 40 995.6
20260831215542 82 329 1.7 3.5 0.00 0.00 0.00 42 995.6
20260831215049 82 350 0.9 3.5 0.00 0.00 0.00 40 995.7
20260831214504 82 28 0.9 5.2 0.00 0.00 0.00 40 995.7
20260831214011 82 113 1.7 7.0 0.00 0.00 0.00 39 995.7
20260831213518 82 9 2.6 4.3 0.00 0.00 0.00 41 995.7
20260831213055 81 148 0.9 4.3 0.00 0.00 0.00 42 995.8
20260831212558 81 187 1.7 3.5 0.00 0.00 0.00 42 995.9
20260831212004 81 90 1.7 3.5 0.00 0.00 0.00 42 995.9
20260831211541 80 306 1.7 4.3 0.00 0.00 0.00 42 995.9
20260831211047 80 333 2.6 4.3 0.00 0.00 0.00 43 995.9
20260831210553 80 35 0.9 3.5 0.00 0.00 0.00 44 996.1
20260831210026 79 319 1.7 3.5 0.00 0.00 0.00 44 996.2
20260831205532 79 150 1.7 4.3 0.00 0.00 0.00 44 996.4
20260831205038 79 78 1.7 2.6 0.00 0.00 0.00 45 996.4
20260831204505 78 290 1.7 3.5 0.00 0.00 0.00 44 996.4
20260831204010 78 25 0.9 4.3 0.00 0.00 0.00 46 996.5
20260831203524 78 18 1.7 4.3 0.00 0.00 0.00 45 996.7
20260831203101 78 50 0.9 3.5 0.00 0.00 0.00 47 996.7
20260831202556 78 28 0.9 3.5 0.00 0.00 0.00 45 996.8
20260831202102 77 32 0.0 4.3 0.00 0.00 0.00 45 996.9
20260831201537 77 53 0.9 4.3 0.00 0.00 0.00 45 997.0
20260831201042 76 311 1.7 7.0 0.00 0.00 0.00 47 996.9
20260831200550 76 305 3.5 7.0 0.00 0.00 0.00 48 997.0
20260831200030 76 259 0.9 4.3 0.00 0.00 0.00 48 997.2
20260831195530 76 55 0.9 4.3 0.00 0.00 0.00 48 997.3
20260831195038 75 57 0.0 3.5 0.00 0.00 0.00 49 997.2
20260831194506 75 355 0.0 5.2 0.00 0.00 0.00 48 997.3
20260831194012 76 183 1.7 5.2 0.00 0.00 0.00 50 997.4
20260831193518 76 86 1.7 4.3 0.00 0.00 0.00 49 997.3
20260831193054 75 132 0.9 3.5 0.00 0.00 0.00 51 997.3
20260831192600 74 231 1.7 4.3 0.00 0.00 0.00 51 997.3
20260831192005 74 325 1.7 4.3 0.00 0.00 0.00 51 997.4
20260831191541 73 66 0.9 2.6 0.00 0.00 0.00 52 997.6
20260831191032 73 71 0.9 2.6 0.00 0.00 0.00 53 997.7
20260831190541 73 80 0.9 3.5 0.00 0.00 0.00 52 997.7
20260831190109 73 98 1.7 3.5 0.00 0.00 0.00 54 998.0
20260831185519 72 36 1.7 4.3 0.00 0.00 0.00 53 997.8
20260831185027 73 54 2.6 4.3 0.00 0.00 0.00 53 998.0
20260831184558 72 295 2.6 4.3 0.00 0.00 0.00 53 998.0
20260831184102 72 79 0.9 3.5 0.00 0.00 0.00 55 998.0
20260831183516 71 33 1.7 4.3 0.00 0.00 0.00 55 998.0
20260831183030 71 11 2.6 4.3 0.00 0.00 0.00 55 998.0
20260831182536 71 325 1.7 4.3 0.00 0.00 0.00 55 998.1
20260831182042 71 5 0.9 4.3 0.00 0.00 0.00 57 998.1
20260831181508 72 32 1.7 4.3 0.00 0.00 0.00 55 998.2
20260831181022 71 19 1.7 4.3 0.00 0.00 0.00 57 998.2
20260831180527 71 102 0.9 2.6 0.00 0.00 0.00 59 998.4
20260831180042 70 151 0.0 2.6 0.00 0.00 0.00 60 998.5
20260831175550 70 149 0.9 5.2 0.00 0.00 0.00 60 998.5
20260831175056 69 149 1.7 5.2 0.00 0.00 0.00 60 998.6
20260831174532 69 143 1.7 4.3 0.00 0.00 0.00 60 998.6
20260831174041 69 46 0.9 2.6 0.00 0.00 0.00 60 998.6
20260831173542 68 49 0.9 5.2 0.00 0.00 0.00 63 998.6
20260831173022 68 355 1.7 5.2 0.00 0.00 0.00 62 998.7
20260831172528 68 59 1.7 4.3 0.00 0.00 0.00 62 998.7
20260831172032 68 70 0.9 2.6 0.00 0.00 0.00 62 998.8
20260831171507 67 51 0.9 3.5 0.00 0.00 0.00 64 998.9
20260831171016 67 48 0.9 3.5 0.00 0.00 0.00 66 998.9
20260831170522 66 321 0.9 4.3 0.00 0.00 0.00 65 998.8
20260831170050 66 34 2.6 4.3 0.00 0.00 0.00 67 999.0
20260831165556 66 338 0.0 2.6 0.00 0.00 0.00 65 999.1
20260831165001 66 25 0.0 2.6 0.00 0.00 0.00 65 999.2
20260831164546 65 22 0.0 2.6 0.00 0.00 0.00 67 999.1
20260831164048 65 298 0.9 2.6 0.00 0.00 0.00 67 999.2
20260831163550 65 336 0.9 4.3 0.00 0.00 0.00 68 999.2
20260831163024 64 30 0.9 4.3 0.00 0.00 0.00 68 999.3
20260831162533 64 40 0.9 2.6 0.00 0.00 0.00 69 999.3
20260831162037 63 40 0.0 3.5 0.00 0.00 0.00 70 999.3
20260831161602 63 40 1.7 3.5 0.00 0.00 0.00 70 999.4
20260831161006 63 49 1.7 3.5 0.00 0.00 0.00 70 999.4
20260831160511 63 17 0.9 2.6 0.00 0.00 0.00 72 999.4
20260831160043 62 46 0.9 3.5 0.00 0.00 0.00 72 999.4
20260831155548 62 51 1.7 4.3 0.00 0.00 0.00 72 999.4
20260831155057 62 47 1.7 4.3 0.00 0.00 0.00 72 999.5
20260831154524 61 74 2.6 4.3 0.00 0.00 0.00 73 999.5
20260831154032 61 51 1.7 3.5 0.00 0.00 0.00 74 999.5
20260831153536 60 25 1.7 3.5 0.00 0.00 0.00 75 999.6
20260831153050 60 53 1.7 3.5 0.00 0.00 0.00 77 999.6
20260831152546 59 34 0.9 2.6 0.00 0.00 0.00 79 999.7
20260831152053 58 28 0.0 3.5 0.00 0.00 0.00 80 999.7
20260831151502 57 20 1.7 3.5 0.00 0.00 0.00 81 999.8
20260831151003 57 49 0.9 2.6 0.00 0.00 0.00 83 999.7
20260831150508 56 323 0.9 2.6 0.00 0.00 0.00 84 999.7
20260831150044 56 43 0.9 2.6 0.00 0.00 0.00 84 999.7
20260831145551 55 212 0.0 2.6 0.00 0.00 0.00 85 999.8
20260831145051 55 213 0.0 0.0 0.00 0.00 0.00 85 999.7
20260831144530 54 213 0.0 0.0 0.00 0.00 0.00 85 999.7
20260831144035 54 213 0.0 0.0 0.00 0.00 0.00 84 999.8
20260831143536 54 213 0.0 0.0 0.00 0.00 0.00 84 999.7
20260831143056 54 213 0.0 0.0 0.00 0.00 0.00 84 999.7
20260831142558 54 213 0.0 0.9 0.00 0.00 0.00 84 999.7
20260831142103 54 213 0.0 1.7 0.00 0.00 0.00 83 999.6
20260831141537 54 213 0.9 1.7 0.00 0.00 0.00 83 999.6
20260831141043 54 213 0.9 1.7 0.00 0.00 0.00 83 999.7
20260831140552 54 213 0.9 1.7 0.00 0.00 0.00 83 999.8
20260831140019 54 213 0.9 1.7 0.00 0.00 0.00 83 999.7
20260831135526 54 213 0.9 1.7 0.00 0.00 0.00 83 999.7
20260831135032 54 213 0.9 1.7 0.00 0.00 0.00 83 999.7
20260831134558 54 213 1.7 1.7 0.00 0.00 0.00 83 999.6
20260831134005 54 213 0.9 1.7 0.00 0.00 0.00 83 999.6
20260831133511 54 213 0.9 1.7 0.00 0.00 0.00 83 999.8
20260831133048 54 213 0.0 1.7 0.00 0.00 0.00 82 999.8
20260831132554 54 213 0.9 1.7 0.00 0.00 0.00 82 999.7
20260831132100 54 213 0.9 2.6 0.00 0.00 0.00 82 999.9
20260831131538 54 213 0.9 2.6 0.00 0.00 0.00 82 999.9
20260831131039 54 213 0.9 1.7 0.00 0.00 0.00 82 999.9
20260831130550 54 213 0.9 1.7 0.00 0.00 0.00 82 999.8
20260831130024 55 213 0.9 1.7 0.00 0.00 0.00 82 999.9
20260831125511 55 213 0.9 2.6 0.00 0.00 0.00 82 999.9
20260831125021 55 213 1.7 2.6 0.00 0.00 0.00 82 1000.0
20260831124607 55 213 0.9 1.7 0.00 0.00 0.00 82 999.9
20260831124003 55 213 0.9 1.7 0.00 0.00 0.00 82 1000.0
20260831123505 55 213 0.9 1.7 0.00 0.00 0.00 82 1000.0
20260831123041 55 213 0.9 1.7 0.00 0.00 0.00 82 1000.0
20260831122550 55 213 0.9 2.6 0.00 0.00 0.00 82 1000.0
20260831122049 55 213 0.0 3.5 0.00 0.00 0.00 82 1000.0
20260831121518 55 296 0.0 0.0 0.00 0.00 0.00 82 1000.1
20260831121032 55 268 0.0 0.0 0.00 0.00 0.00 82 1000.1
20260831120540 55 268 0.0 0.0 0.00 0.00 0.00 82 1000.1
20260831120058 55 268 0.0 0.0 0.00 0.00 0.00 82 1000.2
20260831115502 55 268 0.0 0.0 0.00 0.00 0.00 82 1000.2
20260831115007 55 268 0.0 0.0 0.00 0.00 0.00 82 1000.3
20260831114518 55 268 0.0 0.0 0.00 0.00 0.00 81 1000.4
20260831114032 56 268 0.0 0.0 0.00 0.00 0.00 82 1000.3
20260831113537 56 268 0.0 0.0 0.00 0.00 0.00 82 1000.4
20260831113009 56 268 0.0 0.0 0.00 0.00 0.00 82 1000.4
20260831112523 56 268 0.0 0.0 0.00 0.00 0.00 82 1000.4
20260831112029 56 268 0.0 0.9 0.00 0.00 0.00 82 1000.4
20260831111616 56 268 0.0 1.7 0.00 0.00 0.00 82 1000.5
20260831111101 56 268 0.0 1.7 0.00 0.00 0.00 82 1000.4
20260831110505 56 268 0.9 2.6 0.00 0.00 0.00 81 1000.5
20260831110044 56 268 0.9 2.6 0.00 0.00 0.00 81 1000.6
20260831105549 56 268 0.9 2.6 0.00 0.00 0.00 81 1000.5
20260831105100 56 268 0.9 1.7 0.00 0.00 0.00 81 1000.6
20260831104547 56 268 0.0 2.6 0.00 0.00 0.00 81 1000.6
20260831104038 56 268 0.9 2.6 0.00 0.00 0.00 81 1000.5
20260831103548 56 271 0.9 2.6 0.00 0.00 0.00 81 1000.5
20260831103012 56 271 0.9 2.6 0.00 0.00 0.00 81 1000.6
20260831102529 56 271 0.0 2.6 0.00 0.00 0.00 81 1000.6
20260831102027 56 270 0.9 2.6 0.00 0.00 0.00 81 1000.6
20260831101559 56 271 0.9 2.6 0.00 0.00 0.00 81 1000.7
20260831101004 56 256 0.0 0.0 0.00 0.00 0.00 81 1000.8
20260831100503 56 256 0.0 0.0 0.00 0.00 0.00 81 1000.9
20260831100043 56 256 0.0 0.0 0.00 0.00 0.00 81 1000.9
20260831095547 57 256 0.0 0.0 0.00 0.00 0.00 81 1001.0
20260831095059 57 256 0.0 0.0 0.00 0.00 0.00 81 1001.2
20260831094524 57 256 0.0 1.7 0.00 0.00 0.00 81 1001.2
20260831094031 57 256 0.9 2.6 0.00 0.00 0.00 81 1001.2
20260831093537 57 256 0.9 2.6 0.00 0.00 0.00 80 1001.3
20260831093057 57 254 0.9 1.7 0.00 0.00 0.00 81 1001.2
20260831092501 57 254 0.9 1.7 0.00 0.00 0.00 80 1001.3
20260831092012 57 254 0.0 1.7 0.00 0.00 0.00 80 1001.3
20260831091542 57 254 0.0 2.6 0.00 0.00 0.00 80 1001.3
20260831091045 57 254 0.9 2.6 0.00 0.00 0.00 80 1001.4
20260831090553 57 269 0.9 2.6 0.00 0.00 0.00 80 1001.4
20260831090027 57 269 0.9 2.6 0.00 0.00 0.00 80 1001.5
20260831085537 57 273 0.9 2.6 0.00 0.00 0.00 80 1001.5
20260831085043 57 273 0.9 2.6 0.00 0.00 0.00 80 1001.5
20260831084521 57 270 0.9 2.6 0.00 0.00 0.00 80 1001.6
20260831084026 57 269 0.9 2.6 0.00 0.00 0.00 80 1001.7
20260831083533 58 270 0.9 2.6 0.00 0.00 0.00 80 1001.7
20260831083106 58 270 0.9 2.6 0.00 0.00 0.00 80 1001.7
20260831082514 58 243 0.9 2.6 0.00 0.00 0.00 79 1001.7
20260831082019 58 242 0.9 2.6 0.00 0.00 0.00 79 1001.8
20260831081549 58 242 0.9 2.6 0.00 0.00 0.00 79 1001.8
20260831081055 58 244 0.9 2.6 0.00 0.00 0.00 79 1002.0
20260831080557 58 244 0.9 2.6 0.00 0.00 0.00 78 1002.0
20260831080012 58 242 0.9 2.6 0.00 0.00 0.00 78 1002.2
20260831075525 58 242 0.9 2.6 0.00 0.00 0.00 78 1002.2
20260831075025 59 242 0.9 2.6 0.00 0.00 0.00 78 1002.2
20260831074559 59 231 0.9 2.6 0.00 0.00 0.00 77 1002.3
20260831074005 59 231 0.9 2.6 0.00 0.00 0.00 77 1002.2
20260831073513 59 231 0.9 2.6 0.00 0.00 0.00 77 1002.1
20260831073032 59 246 0.0 1.7 0.00 0.00 0.00 77 1002.2
20260831072535 59 341 0.0 1.7 0.00 0.00 0.00 76 1002.2
20260831072042 60 342 0.0 0.9 0.00 0.00 0.00 76 1002.3
20260831071553 60 259 0.0 0.0 0.00 0.00 0.00 75 1002.4
20260831071101 60 259 0.0 0.0 0.00 0.00 0.00 75 1002.5
20260831070507 60 259 0.0 0.0 0.00 0.00 0.00 75 1002.5
20260831070049 60 259 0.0 2.6 0.00 0.00 0.00 75 1002.5
20260831065538 60 259 0.9 2.6 0.00 0.00 0.00 75 1002.6
20260831065044 60 297 0.9 2.6 0.00 0.00 0.00 75 1002.6
20260831064558 60 304 0.0 1.7 0.00 0.00 0.00 75 1002.7
20260831064059 60 307 0.0 2.6 0.00 0.00 0.00 75 1002.8
20260831063517 60 273 0.0 2.6 0.00 0.00 0.00 74 1002.7
20260831063041 60 280 0.9 5.2 0.00 0.00 0.00 75 1002.8
20260831062542 60 296 1.7 4.3 0.00 0.00 0.00 74 1002.9
20260831062043 61 318 1.7 3.5 0.00 0.00 0.00 74 1002.9
20260831061519 61 297 0.0 5.2 0.00 0.00 0.00 74 1003.0
20260831061026 61 297 1.7 5.2 0.00 0.00 0.00 74 1003.0
20260831060530 61 274 0.9 3.5 0.00 0.00 0.00 74 1003.0
20260831060044 61 54 0.9 7.0 0.00 0.00 0.00 73 1003.0
20260831055549 61 350 1.7 7.0 0.00 0.00 0.00 73 1003.1
20260831055049 61 254 0.0 5.2 0.00 0.00 0.00 73 1003.1
20260831054522 61 269 2.6 7.8 0.00 0.00 0.00 73 1003.2
20260831054026 61 277 0.0 7.8 0.00 0.00 0.00 73 1003.2
20260831053533 61 252 0.9 6.1 0.00 0.00 0.00 73 1003.3
20260831053102 61 5 0.0 6.1 0.00 0.00 0.00 72 1003.3
20260831052502 61 355 1.7 4.3 0.00 0.00 0.00 72 1003.4
20260831052017 61 281 0.9 4.3 0.00 0.00 0.00 72 1003.5
20260831051544 61 320 0.9 4.3 0.00 0.00 0.00 72 1003.6
20260831051053 61 311 0.9 4.3 0.00 0.00 0.00 71 1003.6
20260831050501 62 325 0.9 4.3 0.00 0.00 0.00 71 1003.6
20260831050055 62 305 0.9 4.3 0.00 0.00 0.00 71 1003.6
20260831045541 62 247 0.9 2.6 0.00 0.00 0.00 70 1003.6
20260831045049 62 246 0.9 4.3 0.00 0.00 0.00 70 1003.7
20260831044503 62 307 1.7 4.3 0.00 0.00 0.00 70 1003.7
20260831044010 62 301 1.7 3.5 0.00 0.00 0.00 69 1003.7
20260831043523 63 14 0.0 1.7 0.00 0.00 0.00 69 1003.7
20260831043052 63 284 0.0 1.7 0.00 0.00 0.00 69 1003.8
20260831042554 63 281 0.0 1.7 0.00 0.00 0.00 68 1003.8
20260831042043 63 281 0.9 3.5 0.00 0.00 0.00 67 1003.7
20260831041614 64 281 0.0 3.5 0.00 0.00 0.00 67 1003.7
20260831041010 64 10 0.0 2.6 0.00 0.00 0.00 66 1003.8
20260831040515 64 10 0.9 4.3 0.00 0.00 0.00 66 1003.7
20260831040051 64 344 0.9 4.3 0.00 0.00 0.00 66 1003.8
20260831035558 64 355 0.9 4.3 0.00 0.00 0.00 66 1003.7
20260831035005 65 338 0.9 4.3 0.00 0.00 0.00 65 1003.8
20260831034541 65 51 1.7 4.3 0.00 0.00 0.00 65 1003.8
20260831034047 65 19 0.0 5.2 0.00 0.00 0.00 65 1003.8
20260831033553 65 5 1.7 5.2 0.00 0.00 0.00 64 1003.7
20260831033031 65 12 1.7 6.1 0.00 0.00 0.00 64 1003.7
20260831032542 65 55 1.7 6.1 0.00 0.00 0.00 63 1003.7
20260831032047 66 122 0.9 5.2 0.00 0.00 0.00 63 1003.8
20260831031526 66 5 2.6 8.7 0.00 0.00 0.00 63 1003.7
20260831031030 66 313 3.5 8.7 0.00 0.00 0.00 62 1003.8